This is the latest recevied weather packets stored in our database for station/object DR0T. If no packets are shown the sender has not sent any weather packets the latest 10 day(s).
| Time | Temp. | Humidity | Pressure | Rain* | Wind** | Luminosity | Snow |
|---|---|---|---|---|---|---|---|
| 1778107950 | 8.33° C | 99% | 1009.9 hPa | 2.79 mm | - | - | - |
| 1778107649 | 8.33° C | 99% | 1010 hPa | 3.05 mm | - | - | - |
| 1778107348 | 8.33° C | 99% | 1009.9 hPa | 2.79 mm | - | - | - |
| 1778107047 | 8.89° C | 99% | 1009.9 hPa | 2.79 mm | - | - | - |
| 1778106745 | 8.89° C | 99% | 1009.7 hPa | 2.54 mm | - | - | - |
| 1778106445 | 8.89° C | 99% | 1009.7 hPa | 2.54 mm | - | - | - |
| 1778106144 | 8.89° C | 99% | 1009.7 hPa | 2.29 mm | - | - | - |
| 1778105844 | 8.89° C | 99% | 1009.6 hPa | 2.29 mm | - | - | - |
| 1778105547 | 8.89° C | 99% | 1009.7 hPa | 1.78 mm | - | - | - |
| 1778105239 | 8.89° C | 99% | 1009.5 hPa | 1.52 mm | - | - | - |
| 1778104938 | 9.44° C | 99% | 1009.5 hPa | 1.52 mm | - | - | - |
| 1778104637 | 9.44° C | 99% | 1009.5 hPa | 2.03 mm | - | - | - |
| 1778104336 | 9.44° C | 99% | 1009.5 hPa | 2.03 mm | - | - | - |
| 1778104055 | 9.44° C | 99% | 1009.5 hPa | 2.29 mm | - | - | - |
| 1778103756 | 9.44° C | 99% | 1009.4 hPa | 2.54 mm | - | - | - |
| 1778103455 | 9.44° C | 99% | 1009.5 hPa | 2.54 mm | - | - | - |
| 1778103151 | 9.44° C | 99% | 1009.4 hPa | 2.79 mm | - | - | - |
| 1778102850 | 9.44° C | 99% | 1009.3 hPa | 2.79 mm | - | - | - |
| 1778102549 | 9.44° C | 99% | 1009.2 hPa | 3.05 mm | - | - | - |
| 1778102250 | 9.44° C | 99% | 1009.3 hPa | 3.3 mm | - | - | - |
| 1778101946 | 9.44° C | 99% | 1009.3 hPa | 3.56 mm | - | - | - |
| 1778101645 | 9.44° C | 99% | 1009.3 hPa | 3.81 mm | - | - | - |
| 1778101346 | 9.44° C | 99% | 1009.2 hPa | 3.81 mm | - | - | - |
| 1778101042 | 9.44° C | 99% | 1009.2 hPa | 3.81 mm | - | - | - |
| 1778100740 | 9.44° C | 99% | 1009.2 hPa | 3.81 mm | - | - | - |
* Rain latest hour (hover to see other rain measurements)
** Current wind speed in m/s (hover to see current wind gust speed)